Home   Weather   Chhindwara   Past weeks

Flag for India Past Weather in Chhindwara, Madhya Pradesh, India — Yesterday and Last 2 Weeks

Now
81 °F

Haze.


Feels Like: 81 °F
Forecast: 51 / 80 °F
Wind: 3 mph from East

Location: Nagpur Sonegaon

Current Time: Dec 6, 2016 at 1:53:45 pm

Latest Report: Dec 6, 2016 at 1:00 pm


Visibility: 2 mi

Pressure: 30.01 "Hg (27.75 "Hg at 687m altitude)

Humidity: 48%

Dew Point: 59 °F

Location of ChhindwaraLocation

Past Weather in Chhindwara — Graph

°F

Chhindwara Temperature Yesterday

Maximum temperature yesterday: 84 °F (at 2:00 pm)
Minimum temperature yesterday: 57 °F (at 6:00 am)
Average temperature yesterday: 71 °F

High & Low Weather Summary for the Past Weeks

 TemperatureHumidityPressure
High90 °F (Nov 27, 1:30 pm)100% (Nov 24, 4:00 am)30.15 "Hg (Nov 24, 4:00 am)
Low52 °F (Dec 6, 6:00 am)17% (Dec 5, 12:30 pm)29.89 "Hg (Nov 21, 4:30 pm)
Average72 °F60%30.00 "Hg
* Reported Nov 21 1:00 pm — Dec 6 12:30 pm, Chhindwara, Weather by CustomWeather, © 2016

Note: Actual official high and low records may vary slightly from our data, if they occured in-between our weather recording intervals... More about our weather records

Advertising

Chhindwara Weather History for the Previous 24 Hours

Scroll right to see more
 ConditionsComfort  
Time TempWeatherWind HumidityBarometerVisibility
12:30 pm
Tue, Dec 6
81 °FHaze.3 mph45%30.04 "Hg2 mi
11:30 am79 °FHaze.5 mph45%30.07 "Hg2 mi
11:00 am73 °FHaze.2 mph65%30.09 "Hg2 mi
10:30 am72 °FHaze.2 mph65%30.09 "Hg2 mi
10:00 am68 °FHaze.3 mph73%30.09 "Hg2 mi
9:30 am63 °FHaze.2 mph77%30.09 "Hg2 mi
9:00 am63 °FHaze.No wind77%30.09 "Hg2 mi
8:30 am61 °FHaze.No wind83%30.09 "Hg2 mi
8:00 am59 °FFog.No wind82%30.09 "Hg1 mi
7:30 am57 °FFog.No wind88%30.07 "Hg1 mi
7:00 am52 °FFog.No wind94%30.07 "Hg1 mi
6:30 am52 °FFog.No wind94%30.04 "Hg1 mi
6:00 am52 °FHaze.No wind94%30.04 "Hg1 mi
4:30 am57 °FHaze.No wind88%30.01 "Hg1 mi
4:00 am57 °FHaze.No wind88%30.01 "Hg1 mi
3:30 am57 °FHaze.No wind88%30.01 "Hg1 mi
2:00 am59 °FHaze.No wind88%30.04 "Hg1 mi
12:30 am59 °FHaze.No wind88%30.04 "Hg1 mi
11:30 pm
Mon, Dec 5
61 °FHaze.3 mph83%29.92 "Hg1 mi
11:00 pm68 °FHaze.5 mph64%30.04 "Hg1 mi
10:30 pm68 °FHaze.3 mph64%30.07 "Hg1 mi
10:00 pm68 °FHaze.2 mph64%30.07 "Hg1 mi
9:30 pm66 °FHaze.No wind60%30.07 "Hg1 mi
9:00 pm68 °FHaze.No wind56%30.04 "Hg1 mi
8:30 pm70 °FHaze.No wind57%30.04 "Hg1 mi
8:00 pm70 °FHaze.2 mph57%30.04 "Hg1 mi
7:30 pm70 °FHaze.2 mph53%30.01 "Hg2 mi
7:00 pm70 °FHaze.No wind60%30.01 "Hg2 mi
6:30 pm70 °FHaze.No wind60%30.01 "Hg2 mi
5:30 pm73 °FHaze.No wind53%29.98 "Hg2 mi
5:00 pm81 °FHaze.No wind34%29.98 "Hg2 mi
4:30 pm82 °FHaze.No wind30%29.98 "Hg2 mi
4:00 pm82 °FHaze.No wind32%29.95 "Hg2 mi
3:30 pm84 °FHaze.No wind31%29.95 "Hg2 mi
3:00 pm84 °FHaze.3 mph33%29.98 "Hg2 mi
2:30 pm84 °FHaze.3 mph35%29.98 "Hg2 mi
2:00 pm84 °FHaze.2 mph33%29.98 "Hg2 mi
1:30 pm82 °FHaze.2 mph35%30.01 "Hg2 mi
Weather by CustomWeather, © 2016

See weather overviewHow to use our weather pages